Regional Weather Roundup
Issued by NWS

Home | Current Version | Previous Version | Graphics & Text | Print | Product List | Glossary Off
Versions: 1 2 3 4 5 6 7 8 9 10 11 12 13 14 15 16 17 18 19 20 21 22 23 24 25 26 27 28 29 30 31 32 33 34 35 36 37 38 39 40 41 42 43 44 45 46 47 48 49 50

000
ASUS43 KTOP 230908
RWRKS

WEATHER ROUNDUP FOR KANSAS
NATIONAL WEATHER SERVICE GOODLAND KS
300 AM CST FRI FEB 23 2018

NOTE:  "FAIR" INDICATES FEW OR NO CLOUDS BELOW 12,000 FEET WITH NO
SIGNIFICANT WEATHER AND/OR OBSTRUCTIONS TO VISIBILITY.

KSZ001>006-013>018-027>032-041>047-231000-
NORTHWEST KANSAS

CITY           SKY/WX    TMP DP  RH WIND       PRES   REMARKS
GOODLAND       CLOUDY    22  22 100 SW6       30.12S FOG
HAYS           CLOUDY    26  25  96 NE5       30.20F
HILL CITY      FOG       23  23 100 NW7       30.20S VSB 1/2
RUSSELL        CLOUDY    30  28  92 NW3       30.20R
$$

KSZ061>065-074>080-084>089-231000-
SOUTHWEST KANSAS

CITY           SKY/WX    TMP DP  RH WIND       PRES   REMARKS
DODGE CITY     FOG       30  28  92 NE7       30.15S VSB 1/2
ELKHART        CLEAR     25  13  61 N6        30.11R
GARDEN CITY    FOG       28  28 100 E10       30.13S VSB 1/4 WCI  19
GREAT BEND     CLOUDY    28  28 100 N6        30.20S
LIBERAL        CLOUDY    23  21  92 NW9       30.12R
PRATT          CLOUDY    30  29  96 CALM      30.19S FOG
$$

KSZ066>073-081>083-090>101-231000-
SOUTHEAST KANSAS

CITY           SKY/WX    TMP DP  RH WIND       PRES   REMARKS
CHANUTE        CLOUDY    35  34  96 W5        30.23R
COFFEYVILLE    CLOUDY    36  36 100 W5        30.23S
HUTCHINSON     CLOUDY    32  32 100 N3        30.20S FOG
MEDICINE LODGE   N/A     30  30 100 NE5       30.19F
NEWTON         CLOUDY    31  30  96 NW6       30.21S FOG
PARSONS        CLOUDY    35  35 100 W5        30.24S
WICHITA INTL   CLOUDY    32  32 100 NW3       30.21S FOG
WICHITA JABRA  CLOUDY    32  32 100 NW6       30.21S FOG
WICHITA MCCONL CLOUDY    32  32  99 NW3       30.20S
WINFIELD       CLOUDY    32  32 100 N3        30.23S FOG
$$

KSZ007>012-019>026-033>040-048>060-102>105-231000-
NORTHEAST KANSAS

CITY           SKY/WX    TMP DP  RH WIND       PRES   REMARKS
CONCORDIA      CLOUDY    29  28  96 W6        30.21S
EMPORIA        CLOUDY    32  31  96 W7        30.21R FOG
LAWRENCE       CLOUDY    33  33 100 W6        30.22R
MANHATTAN      CLOUDY    33  31  92 CALM      30.22S FOG
MARYSVILLE     CLOUDY    32  30  93 NW7       30.21S
OLATHE IND     CLOUDY    32  32 100 W5        30.21R FOG
OLATHE EXE     CLOUDY    32  32 100 W7        30.20R FOG
SALINA         CLOUDY    32  31  96 NW7       30.23S
TOPEKA BILLARD CLOUDY    33  33 100 W6        30.21F FOG
TOPEKA FORBES  CLOUDY    34  33  96 NW5       30.20S FOG
$$




USA.gov is the U.S. government's official web portal to all federal, state and local government web resources and services.